Tracking 22124 objects as of 23-Jan-2021
HD Live streaming from Space Station
objects crossing your sky now

NEE 02 KRYSAOR

Track NEE 02 KRYSAOR now!
10-day predictions
NEE 02 KRYSAOR is classified as:


NORAD ID: 39441
Int'l Code: 2013-066AB
Perigee: 594.6 km
Apogee: 709.2 km
Inclination: 97.7 °
Period: 97.6 minutes
Semi major axis: 7022 km
RCS: Unknown
Launch date: November 21, 2013
Source: Ecuador (ECU)
Launch site: Orenburg, Russia (OREN)

Uplink (MHz):
Downlink (MHz): 980.000(bandwidth 25MHz)
Beacon (MHz):
Mode:
Call sign:
Status:

aabbcc
Your satellite tracking list
Your tracking list is empty




NASA's NSSDC Master Catalog

Two Line Element Set (TLE):
1 39441U 13066AB  21022.88072985  .00000212  00000-0  37091-4 0  9990
2 39441  97.6666 356.9828 0081583 359.1468   0.9590 14.75111725384759
Source of the keplerian elements: AFSPC